Location: Hopkins Observatory
(42.6965°N, 73.1843°W)
Time: 05:36:59
(UTC-05:00)

UOSAT-12 - Visible Passes

Search period start: 22 January 2018 00:00
Search period end: 01 February 2018 00:00
Orbit: 593 x 660 km, 64.6° (Epoch: 21 January)

Date Brightness Start Highest point End Pass type
(mag) Time Alt. Az. Time Alt. Az. Time Alt. Az.
22 Jan 7.2 05:06:53 59° NNW 05:06:53 59° NNW 05:11:03 10° NNE visible
22 Jan 9.0 06:45:13 10° WNW 06:47:24 13° NNW 06:49:36 10° N visible
23 Jan 9.9 03:49:31 15° ENE 03:49:31 15° ENE 03:50:25 10° NE visible
23 Jan 8.0 05:26:51 32° NNW 05:26:51 32° NNW 05:30:35 10° NNE visible
24 Jan 9.5 04:09:19 18° NE 04:09:19 18° NE 04:10:32 10° NE visible
24 Jan 8.7 05:46:38 19° NW 05:46:38 19° NW 05:49:51 10° N visible
25 Jan 9.3 04:28:58 18° NNE 04:28:58 18° NNE 04:30:17 10° NNE visible
25 Jan 9.2 06:06:16 12° NW 06:06:48 12° NNW 06:08:32 10° N visible
26 Jan 9.3 04:48:30 16° N 04:48:30 16° N 04:49:46 10° NNE visible
27 Jan 9.4 05:07:57 13° N 05:07:57 13° N 05:08:57 10° N visible
